Weather History for Ramona, CA

Change the Weather History Date:

Saturday, February 9, 2013

  Actual Average Record
Temperature  
Mean Temperature 42 °F 50 °F  
Max Temperature 53 °F 65 °F 83 °F (1988)
Min Temperature 30 °F 37 °F 28 °F (2001)
Degree Days  
Heating Degree Days 23 14  
Month to date heating degree days 135 134  
Since 1 July heating degree days 1447 1481  
Cooling Degree Days 0 0  
Month to date cooling degree days 0 0  
Year to date cooling degree days 0 1  
Moisture  
Dew Point 35 °F    
Average Humidity 80    
Maximum Humidity 100    
Minimum Humidity 59    
Precipitation  
Precipitation 0.00 in 0.11 in 2.16 in (1976)
Month to date precipitation 0.24 0.72  
Year to date precipitation 1.84 4.04  
Since 1 July precipitation 5.48 8.75  
Snow  
Snow 0.00 in - - ()
Month to date snowfall 0.0  
Year to date snowfall 0.0  
Since 1 July snowfall 0.0  
Snow Depth 0.00 in    
Sea Level Pressure  
Sea Level Pressure 30.00 in    
Wind  
Wind Speed 3 mph (West)    
Max Wind Speed 14 mph    
Max Gust Speed 17 mph    
Visibility 6 miles    
Events Fog    
T = Trace of Precipitation, MM = Missing Value Source: NWS Daily Summary

Daily Weather History Graph

Daily Weather History Graph

Search for Another Location

Airport:

Trip Planner

Search our weather history database for the weather conditions in past years. The results will help you decide how hot, cold, wet, or windy it might be!

Date:

Astronomy

Feb. 09, 2013 Rise Set
Actual Time 6:36 AM PST 5:27 PM PST
Civil Twilight 6:10 AM PST 5:53 PM PST
Nautical Twilight 5:41 AM PST 6:22 PM PST
Astronomical Twilight 5:12 AM PST 6:51 PM PST
Moon 5:51 AM PST (2/9) 5:13 PM PST (2/9)
Length of Visible Light 11h 42m
Length of Day
10h 51m
Waning Crescent, 0% of the Moon is Illuminated
Feb 9
Waning Crescent
Feb 9
New
Feb 17
First Quarter
Feb 25
Full
Mar 4
Last Quarter

Hourly Weather History & Observations

Time (PST) Temp. Windchill Dew Point Humidity Pressure Visibility Wind Dir Wind Speed Gust Speed Precip Events Conditions
12:53 AM 39.9 °F 37.8 °F 37.0 °F 89% 29.93 in 10.0 mi SE 3.5 mph - 0.00 in   Mostly Cloudy
1:23 AM 39.2 °F 37.0 °F 37.4 °F 93% 29.92 in 10.0 mi ESE 3.5 mph - N/A   Overcast
1:37 AM 39.2 °F - 37.4 °F 93% 29.92 in 10.0 mi Calm Calm - N/A   Mostly Cloudy
1:53 AM 39.0 °F - 37.0 °F 93% 29.93 in 10.0 mi Calm Calm - N/A   Partly Cloudy
2:53 AM 37.0 °F - 36.0 °F 96% 29.93 in 6.0 mi Calm Calm - N/A   Scattered Clouds
3:53 AM 36.0 °F - 35.1 °F 97% 29.94 in 10.0 mi Calm Calm - N/A   Scattered Clouds
4:34 AM 33.8 °F - 33.8 °F 100% 29.94 in 1.5 mi Calm Calm - N/A   Clear
4:38 AM 33.8 °F - 33.8 °F 100% 29.94 in 0.8 mi Calm Calm - N/A   Clear
4:44 AM 35.6 °F - 33.8 °F 93% 29.94 in 1.2 mi Calm Calm - N/A   Clear
4:47 AM 35.6 °F - 33.8 °F 93% 29.94 in 3.0 mi Calm Calm - N/A   Clear
4:53 AM 35.1 °F - 34.0 °F 96% 29.95 in 9.0 mi Calm Calm - N/A   Clear
5:53 AM 32.0 °F - 30.9 °F 96% 29.97 in 8.0 mi Calm Calm - N/A   Clear
5:58 AM 30.2 °F - 30.2 °F 100% 29.95 in 1.8 mi Calm Calm - N/A   Clear
6:05 AM 30.2 °F - 28.4 °F 93% 29.96 in 1.0 mi Calm Calm - N/A   Mist
6:12 AM 30.2 °F - 30.2 °F 100% 29.96 in 0.5 mi Calm Calm - N/A Fog Light Freezing Fog
6:35 AM 30.2 °F - 30.2 °F 100% 29.97 in 1.2 mi Calm Calm - N/A   Scattered Clouds
6:40 AM 30.2 °F - 30.2 °F 100% 29.97 in 3.0 mi Calm Calm - N/A   Partly Cloudy
6:50 AM 30.2 °F - 28.4 °F 93% 29.97 in 1.5 mi Calm Calm - N/A   Partly Cloudy
6:53 AM 30.0 °F - 28.9 °F 96% 29.99 in 0.5 mi Calm Calm - N/A Fog Light Freezing Fog
7:02 AM 30.2 °F - 30.2 °F 100% 29.98 in 0.2 mi Calm Calm - N/A Fog Light Freezing Fog
7:21 AM 33.8 °F 30.8 °F 32.0 °F 93% 29.99 in 0.8 mi East 3.5 mph - N/A   Mist
7:25 AM 33.8 °F - 33.8 °F 100% 29.99 in 1.2 mi Calm Calm - N/A   Scattered Clouds
7:53 AM 36.0 °F - 35.1 °F 97% 30.02 in 3.0 mi Calm Calm - N/A   Clear
8:53 AM 41.0 °F - 39.0 °F 93% 30.04 in 10.0 mi Calm Calm - N/A   Scattered Clouds
9:53 AM 45.0 °F 42.6 °F 37.9 °F 76% 30.05 in 10.0 mi Variable 4.6 mph - N/A   Scattered Clouds
10:04 AM 46.4 °F 43.5 °F 37.4 °F 71% 30.05 in 10.0 mi West 5.8 mph - N/A   Mostly Cloudy
10:53 AM 48.9 °F - 39.9 °F 71% 30.05 in 10.0 mi NNW 5.8 mph - N/A   Overcast
11:20 AM 50.0 °F - 39.2 °F 66% 30.05 in 10.0 mi SW 5.8 mph - N/A   Overcast
11:53 AM 48.9 °F - 37.0 °F 64% 30.05 in 10.0 mi SW 8.1 mph - N/A   Overcast
12:53 PM 50.0 °F - 37.9 °F 63% 30.04 in 10.0 mi West 6.9 mph - N/A   Mostly Cloudy
1:53 PM 52.0 °F - 37.0 °F 57% 30.02 in 10.0 mi West 10.4 mph - N/A   Mostly Cloudy
2:53 PM 48.9 °F - 36.0 °F 61% 30.03 in 10.0 mi West 9.2 mph - N/A   Partly Cloudy
3:53 PM 51.1 °F - 36.0 °F 56% 30.02 in 10.0 mi WNW 9.2 mph - N/A   Partly Cloudy
4:53 PM 46.0 °F 43.9 °F 35.1 °F 66% 30.03 in 10.0 mi West 4.6 mph - N/A   Clear
5:53 PM 42.1 °F 40.2 °F 35.1 °F 76% 30.05 in 10.0 mi West 3.5 mph - N/A   Clear
6:53 PM 39.9 °F - 35.1 °F 83% 30.07 in 10.0 mi Calm Calm - N/A   Clear
7:53 PM 37.9 °F 35.5 °F 34.0 °F 86% 30.08 in 10.0 mi East 3.5 mph - N/A   Clear
8:38 PM 37.4 °F - 33.8 °F 87% 30.08 in 9.0 mi Calm Calm - N/A   Mostly Cloudy
8:53 PM 37.9 °F - 35.1 °F 89% 30.09 in 7.0 mi Calm Calm - N/A   Mostly Cloudy
9:53 PM 37.0 °F - 34.0 °F 89% 30.11 in 6.0 mi Calm Calm - N/A   Scattered Clouds
10:53 PM 37.9 °F - 36.0 °F 93% 30.10 in 5.0 mi Calm Calm - N/A   Mostly Cloudy
11:53 PM 37.9 °F - 37.0 °F 97% 30.10 in 9.0 mi Calm Calm - N/A   Overcast